Location: ?
(35.4064°N, 139.3593°E)
Time: 11:04:31
(UTC+00:00)

SPOT 5 - Pass Details

Date: 18 April 2024
Orbit: 620 x 810 km, 98.1° (Epoch: 19 May)

Event Time Altitude Azimuth Distance (km) Brightness Sun altitude
Exits shadow 12:09:53 49° 270° (W) 1,041 3.8 -31.3°
Drops below altitude 10° 12:14:47 10° 336° (NNW) 2,382 6.3 -31.9°
Sets 12:17:11 0° 341° (NNW) 3,300 7.2 -32.3°
